Time,TemperatureF,DewpointF,PressureIn,WindDirection,WindDirectionDegrees,WindSpeedMPH,WindSpeedGustMPH,Humidity,HourlyPrecipIn,Conditions,Clouds,dailyrainin,SoftwareType,DateUTC
2013-09-09 00:01:00,77.7,71.4,29.85,NNW,338,0.0,0.0,81,0.00,,---,0.41,VWS V13.01,2013-09-09 04:01:00,
2013-09-09 00:02:00,77.7,71.4,29.85,NNW,338,0.0,0.0,81,0.00,,---,0.41,VWS V13.01,2013-09-09 04:02:00,
2013-09-09 00:07:00,77.7,71.4,29.85,NNW,338,0.0,0.0,81,0.00,,---,0.41,VWS V13.01,2013-09-09 04:07:00,
2013-09-09 00:12:00,77.7,71.4,29.85,NNW,338,0.0,0.0,81,0.00,,---,0.41,VWS V13.01,2013-09-09 04:12:00,
2013-09-09 00:17:00,77.7,71.8,29.85,NNW,338,0.0,0.0,82,0.00,,---,0.41,VWS V13.01,2013-09-09 04:17:00,
2013-09-09 00:22:00,77.5,71.6,29.85,NNW,338,0.0,0.0,82,0.00,,---,0.41,VWS V13.01,2013-09-09 04:22:00,
2013-09-09 00:27:00,77.7,71.8,29.85,NNW,338,0.0,0.0,82,0.00,,---,0.41,VWS V13.01,2013-09-09 04:27:00,
2013-09-09 00:32:00,77.7,71.8,29.85,NNW,338,0.0,0.0,82,0.00,,---,0.41,VWS V13.01,2013-09-09 04:32:00,
2013-09-09 00:37:00,77.5,71.6,29.85,NNW,338,0.0,0.0,82,0.00,,---,0.41,VWS V13.01,2013-09-09 04:37:00,
2013-09-09 00:42:00,77.5,71.6,29.85,NNW,338,0.0,0.0,82,0.00,,---,0.41,VWS V13.01,2013-09-09 04:42:00,
2013-09-09 00:47:00,77.5,71.6,29.86,NNW,338,0.0,0.0,82,0.00,,---,0.41,VWS V13.01,2013-09-09 04:47:00,
2013-09-09 00:52:00,77.5,71.6,29.85,NNW,338,0.0,0.0,82,0.00,,---,0.41,VWS V13.01,2013-09-09 04:52:00,
2013-09-09 00:57:00,77.4,71.4,29.85,NNW,338,0.0,0.0,82,0.00,,---,0.41,VWS V13.01,2013-09-09 04:57:00,
2013-09-09 01:02:00,77.5,71.6,29.85,NNW,338,0.0,0.0,82,0.00,,---,0.41,VWS V13.01,2013-09-09 05:02:00,
2013-09-09 01:07:00,77.5,72.0,29.85,NNW,338,0.0,0.0,83,0.00,,---,0.41,VWS V13.01,2013-09-09 05:07:00,
2013-09-09 01:12:00,77.5,72.0,29.84,NNW,338,0.0,0.0,83,0.00,,---,0.41,VWS V13.01,2013-09-09 05:12:00,
2013-09-09 01:17:00,77.5,72.0,29.84,NNW,338,0.0,0.0,83,0.00,,---,0.41,VWS V13.01,2013-09-09 05:17:00,
2013-09-09 01:22:00,77.5,72.0,29.84,NNW,338,0.0,0.0,83,0.00,,---,0.41,VWS V13.01,2013-09-09 05:22:00,
2013-09-09 01:27:00,77.5,72.0,29.84,NNW,338,0.0,0.0,83,0.00,,---,0.41,VWS V13.01,2013-09-09 05:27:00,
2013-09-09 01:32:00,77.5,72.0,29.84,NNW,338,0.0,0.0,83,0.00,,---,0.41,VWS V13.01,2013-09-09 05:32:00,
2013-09-09 01:37:00,77.5,72.0,29.84,NNW,338,0.0,0.0,83,0.00,,---,0.41,VWS V13.01,2013-09-09 05:37:00,
2013-09-09 01:42:00,77.7,72.5,29.84,NNW,338,0.0,0.0,84,0.00,,---,0.41,VWS V13.01,2013-09-09 05:42:00,
2013-09-09 01:47:00,77.5,72.3,29.84,NNW,338,0.0,0.0,84,0.00,,---,0.41,VWS V13.01,2013-09-09 05:47:00,
2013-09-09 01:52:00,77.7,72.5,29.84,NNW,338,0.0,0.0,84,0.00,,---,0.41,VWS V13.01,2013-09-09 05:52:00,
2013-09-09 01:57:00,77.5,72.3,29.83,NNW,338,0.0,0.0,84,0.00,,---,0.41,VWS V13.01,2013-09-09 05:57:00,
2013-09-09 02:02:00,77.7,72.5,29.83,NNW,338,0.0,0.0,84,0.00,,---,0.41,VWS V13.01,2013-09-09 06:02:00,
2013-09-09 02:07:00,77.7,72.5,29.83,NNW,338,0.0,0.0,84,0.00,,---,0.41,VWS V13.01,2013-09-09 06:07:00,
2013-09-09 02:12:00,77.5,72.3,29.83,NNW,338,0.0,0.0,84,0.00,,---,0.41,VWS V13.01,2013-09-09 06:12:00,
2013-09-09 02:17:00,77.5,72.3,29.83,NNW,338,0.0,0.0,84,0.00,,---,0.41,VWS V13.01,2013-09-09 06:17:00,
2013-09-09 02:22:00,77.5,72.3,29.83,NNW,338,0.0,0.0,84,0.00,,---,0.41,VWS V13.01,2013-09-09 06:22:00,
2013-09-09 02:27:00,77.4,72.2,29.82,NNW,338,0.0,0.0,84,0.00,,---,0.41,VWS V13.01,2013-09-09 06:27:00,
2013-09-09 02:32:00,77.4,72.2,29.82,NNW,338,0.0,0.0,84,0.00,,---,0.41,VWS V13.01,2013-09-09 06:32:00,
2013-09-09 02:37:00,77.2,72.0,29.82,NNW,338,0.0,0.0,84,0.00,,---,0.41,VWS V13.01,2013-09-09 06:37:00,
2013-09-09 02:42:00,77.4,72.2,29.82,NNW,338,0.0,0.0,84,0.00,,---,0.41,VWS V13.01,2013-09-09 06:42:00,
2013-09-09 02:47:00,77.2,72.3,29.82,NNW,338,0.0,0.0,85,0.00,,---,0.41,VWS V13.01,2013-09-09 06:47:00,
2013-09-09 02:52:00,76.8,71.6,29.82,NNW,338,0.0,0.0,84,0.00,,---,0.41,VWS V13.01,2013-09-09 06:52:00,
2013-09-09 02:57:00,76.8,71.6,29.81,NNW,338,0.0,0.0,84,0.00,,---,0.41,VWS V13.01,2013-09-09 06:57:00,
2013-09-09 03:02:00,76.6,71.4,29.81,NNW,338,0.0,0.0,84,0.00,,---,0.41,VWS V13.01,2013-09-09 07:02:00,
2013-09-09 03:07:00,76.6,71.4,29.81,NNW,338,0.0,0.0,84,0.00,,---,0.41,VWS V13.01,2013-09-09 07:07:00,
2013-09-09 03:12:00,76.6,71.4,29.81,NNW,338,0.0,0.0,84,0.00,,---,0.41,VWS V13.01,2013-09-09 07:12:00,
2013-09-09 03:17:00,76.5,71.3,29.81,NNW,338,0.0,0.0,84,0.00,,---,0.41,VWS V13.01,2013-09-09 07:17:00,
2013-09-09 03:22:00,76.5,71.3,29.81,NNW,338,0.0,0.0,84,0.00,,---,0.41,VWS V13.01,2013-09-09 07:22:00,
2013-09-09 03:27:00,76.5,71.3,29.81,NNW,338,0.0,0.0,84,0.00,,---,0.41,VWS V13.01,2013-09-09 07:27:00,
2013-09-09 03:32:00,76.1,70.9,29.81,NNW,338,0.0,0.0,84,0.00,,---,0.41,VWS V13.01,2013-09-09 07:32:00,
2013-09-09 03:37:00,75.9,70.4,29.81,NNW,338,0.0,0.0,83,0.00,,---,0.41,VWS V13.01,2013-09-09 07:37:00,
2013-09-09 03:42:00,76.1,70.9,29.81,NNW,338,0.0,0.0,84,0.00,,---,0.41,VWS V13.01,2013-09-09 07:42:00,
2013-09-09 03:47:00,75.9,70.4,29.81,NNW,338,0.0,0.0,83,0.00,,---,0.41,VWS V13.01,2013-09-09 07:47:00,
2013-09-09 03:52:00,75.9,70.4,29.81,NNW,338,0.0,0.0,83,0.00,,---,0.41,VWS V13.01,2013-09-09 07:52:00,
2013-09-09 03:57:00,75.9,70.4,29.81,NNW,338,0.0,0.0,83,0.00,,---,0.41,VWS V13.01,2013-09-09 07:57:00,
2013-09-09 04:02:00,75.9,70.4,29.81,NNW,338,0.0,0.0,83,0.00,,---,0.41,VWS V13.01,2013-09-09 08:02:00,
2013-09-09 04:07:00,75.6,70.0,29.81,NNW,338,0.0,0.0,83,0.00,,---,0.41,VWS V13.01,2013-09-09 08:07:00,
2013-09-09 04:12:00,75.6,70.0,29.82,NNW,338,0.0,0.0,83,0.00,,---,0.41,VWS V13.01,2013-09-09 08:12:00,
2013-09-09 04:17:00,75.6,70.0,29.81,NNW,338,0.0,0.0,83,0.00,,---,0.41,VWS V13.01,2013-09-09 08:17:00,
2013-09-09 04:22:00,75.6,70.0,29.81,NNW,338,0.0,0.0,83,0.00,,---,0.41,VWS V13.01,2013-09-09 08:22:00,
2013-09-09 04:27:00,75.6,70.0,29.81,NNW,338,0.0,0.0,83,0.00,,---,0.41,VWS V13.01,2013-09-09 08:27:00,
2013-09-09 04:32:00,75.7,70.2,29.81,NNW,338,0.0,0.0,83,0.00,,---,0.41,VWS V13.01,2013-09-09 08:32:00,
2013-09-09 04:37:00,75.7,70.2,29.81,NNW,338,0.0,0.0,83,0.00,,---,0.41,VWS V13.01,2013-09-09 08:37:00,
2013-09-09 04:42:00,75.7,70.2,29.81,NNW,338,0.0,0.0,83,0.00,,---,0.41,VWS V13.01,2013-09-09 08:42:00,
2013-09-09 04:47:00,75.6,70.0,29.81,NNW,338,0.0,0.0,83,0.00,,---,0.41,VWS V13.01,2013-09-09 08:47:00,
2013-09-09 04:52:00,75.6,70.0,29.81,NNW,338,0.0,0.0,83,0.00,,---,0.41,VWS V13.01,2013-09-09 08:52:00,
2013-09-09 04:57:00,75.4,69.9,29.81,NNW,338,0.0,0.0,83,0.00,,---,0.41,VWS V13.01,2013-09-09 08:57:00,
2013-09-09 05:02:00,75.4,69.5,29.81,NNW,338,0.0,0.0,82,0.00,,---,0.41,VWS V13.01,2013-09-09 09:02:00,
2013-09-09 05:07:00,75.2,69.7,29.81,NNW,338,0.0,0.0,83,0.00,,---,0.41,VWS V13.01,2013-09-09 09:07:00,
2013-09-09 05:12:00,75.4,69.9,29.82,NNW,338,0.0,0.0,83,0.00,,---,0.41,VWS V13.01,2013-09-09 09:12:00,
2013-09-09 05:17:00,75.0,69.5,29.81,NNW,338,0.0,0.0,83,0.00,,---,0.41,VWS V13.01,2013-09-09 09:17:00,
2013-09-09 05:22:00,75.0,69.5,29.81,NNW,338,0.0,0.0,83,0.00,,---,0.41,VWS V13.01,2013-09-09 09:22:00,
2013-09-09 05:27:00,75.0,69.5,29.81,NNW,338,0.0,0.0,83,0.00,,---,0.41,VWS V13.01,2013-09-09 09:27:00,
2013-09-09 05:32:00,75.0,69.5,29.81,NNW,338,0.0,0.0,83,0.00,,---,0.41,VWS V13.01,2013-09-09 09:32:00,
2013-09-09 05:37:00,74.8,69.3,29.81,NNW,338,0.0,0.0,83,0.00,,---,0.41,VWS V13.01,2013-09-09 09:37:00,
2013-09-09 05:42:00,74.8,69.3,29.81,NNW,338,0.0,0.0,83,0.00,,---,0.41,VWS V13.01,2013-09-09 09:42:00,
2013-09-09 05:47:00,74.8,69.3,29.82,NNW,338,0.0,0.0,83,0.00,,---,0.41,VWS V13.01,2013-09-09 09:47:00,
2013-09-09 05:52:00,74.8,69.3,29.82,NNW,338,0.0,0.0,83,0.00,,---,0.41,VWS V13.01,2013-09-09 09:52:00,
2013-09-09 05:57:00,74.8,69.3,29.82,NNW,338,0.0,0.0,83,0.00,,---,0.41,VWS V13.01,2013-09-09 09:57:00,
2013-09-09 06:02:00,74.8,69.3,29.82,NNW,338,0.0,0.0,83,0.00,,---,0.41,VWS V13.01,2013-09-09 10:02:00,
2013-09-09 06:07:00,74.7,69.2,29.82,NNW,338,0.0,0.0,83,0.00,,---,0.41,VWS V13.01,2013-09-09 10:07:00,
2013-09-09 06:12:00,74.7,69.2,29.83,NNW,338,0.0,0.0,83,0.00,,---,0.41,VWS V13.01,2013-09-09 10:12:00,
2013-09-09 06:17:00,74.7,69.2,29.83,NNW,338,0.0,0.0,83,0.00,,---,0.41,VWS V13.01,2013-09-09 10:17:00,
2013-09-09 06:22:00,74.7,69.2,29.83,NNW,338,0.0,0.0,83,0.00,,---,0.41,VWS V13.01,2013-09-09 10:22:00,
2013-09-09 06:27:00,74.7,69.2,29.83,NNW,338,0.0,0.0,83,0.00,,---,0.41,VWS V13.01,2013-09-09 10:27:00,
2013-09-09 06:32:00,74.5,69.0,29.84,NNW,338,0.0,0.0,83,0.00,,---,0.41,VWS V13.01,2013-09-09 10:32:00,
2013-09-09 06:37:00,74.7,69.5,29.84,NNW,338,0.0,0.0,84,0.00,,---,0.41,VWS V13.01,2013-09-09 10:37:00,
2013-09-09 06:42:00,74.3,69.2,29.84,NNW,338,0.0,0.0,84,0.00,,---,0.41,VWS V13.01,2013-09-09 10:42:00,
2013-09-09 06:47:00,74.5,69.3,29.84,NNW,338,0.0,0.0,84,0.00,,---,0.41,VWS V13.01,2013-09-09 10:47:00,
2013-09-09 06:52:00,74.5,69.3,29.84,NNW,338,0.0,0.0,84,0.00,,---,0.41,VWS V13.01,2013-09-09 10:52:00,
2013-09-09 06:57:00,74.3,69.2,29.84,NNW,338,0.0,0.0,84,0.00,,---,0.41,VWS V13.01,2013-09-09 10:57:00,
2013-09-09 07:02:00,74.5,69.3,29.84,NNW,338,0.0,0.0,84,0.00,,---,0.41,VWS V13.01,2013-09-09 11:02:00,
2013-09-09 07:07:00,74.3,69.2,29.84,NNW,338,0.0,0.0,84,0.00,,---,0.41,VWS V13.01,2013-09-09 11:07:00,
2013-09-09 07:12:00,74.5,69.3,29.84,North,0,0.0,0.0,84,0.00,,---,0.41,VWS V13.01,2013-09-09 11:12:00,
2013-09-09 07:17:00,74.5,69.3,29.84,North,0,0.0,0.0,84,0.00,,---,0.41,VWS V13.01,2013-09-09 11:17:00,
2013-09-09 07:22:00,74.7,69.5,29.84,North,0,0.0,0.0,84,0.00,,---,0.41,VWS V13.01,2013-09-09 11:22:00,
2013-09-09 07:27:00,74.8,70.0,29.84,North,0,0.0,0.0,85,0.00,,---,0.41,VWS V13.01,2013-09-09 11:27:00,
2013-09-09 07:32:00,75.2,70.4,29.85,North,0,0.0,0.0,85,0.00,,---,0.41,VWS V13.01,2013-09-09 11:32:00,
2013-09-09 07:37:00,75.4,70.6,29.85,North,0,0.0,0.0,85,0.00,,---,0.41,VWS V13.01,2013-09-09 11:37:00,
2013-09-09 07:42:00,75.4,70.6,29.85,North,0,0.0,0.0,85,0.00,,---,0.41,VWS V13.01,2013-09-09 11:42:00,
2013-09-09 07:47:00,75.7,70.9,29.85,North,0,0.0,0.0,85,0.00,,---,0.41,VWS V13.01,2013-09-09 11:47:00,
2013-09-09 07:52:00,76.1,71.6,29.85,North,0,0.0,0.0,86,0.00,,---,0.41,VWS V13.01,2013-09-09 11:52:00,
2013-09-09 07:57:00,76.3,71.4,29.86,North,0,0.0,0.0,85,0.00,,---,0.41,VWS V13.01,2013-09-09 11:57:00,
2013-09-09 08:02:00,76.5,71.6,29.86,North,0,0.0,0.0,85,0.00,,---,0.41,VWS V13.01,2013-09-09 12:02:00,
2013-09-09 08:07:00,77.0,72.2,29.86,North,0,0.0,0.0,85,0.00,,---,0.41,VWS V13.01,2013-09-09 12:07:00,
2013-09-09 08:12:00,77.5,72.3,29.86,North,0,0.0,0.0,84,0.00,,---,0.41,VWS V13.01,2013-09-09 12:12:00,
2013-09-09 08:17:00,77.9,72.3,29.86,North,0,0.0,0.0,83,0.00,,---,0.41,VWS V13.01,2013-09-09 12:17:00,
2013-09-09 08:22:00,78.4,72.5,29.86,North,0,0.0,0.0,82,0.00,,---,0.41,VWS V13.01,2013-09-09 12:22:00,
2013-09-09 08:27:00,79.2,73.2,29.86,North,0,0.0,0.0,82,0.00,,---,0.41,VWS V13.01,2013-09-09 12:27:00,
2013-09-09 08:32:00,79.7,73.4,29.86,North,0,0.0,0.0,81,0.00,,---,0.41,VWS V13.01,2013-09-09 12:32:00,
2013-09-09 08:37:00,80.1,73.0,29.87,North,0,0.0,0.0,79,0.00,,---,0.41,VWS V13.01,2013-09-09 12:37:00,
2013-09-09 08:42:00,80.6,72.7,29.86,North,0,0.0,0.0,77,0.00,,---,0.41,VWS V13.01,2013-09-09 12:42:00,
2013-09-09 08:47:00,81.3,73.0,29.87,North,0,0.0,0.0,76,0.00,,---,0.41,VWS V13.01,2013-09-09 12:47:00,
2013-09-09 08:52:00,81.9,73.2,29.87,NNE,22,0.0,0.0,75,0.00,,---,0.41,VWS V13.01,2013-09-09 12:52:00,
2013-09-09 08:57:00,82.0,72.9,29.87,NNE,22,0.0,0.0,74,0.00,,---,0.41,VWS V13.01,2013-09-09 12:57:00,
2013-09-09 09:02:00,82.2,72.3,29.87,NNE,22,0.0,0.0,72,0.00,,---,0.41,VWS V13.01,2013-09-09 13:02:00,
2013-09-09 09:07:00,82.0,71.7,29.87,NNE,22,0.0,0.0,71,0.00,,---,0.41,VWS V13.01,2013-09-09 13:07:00,
2013-09-09 09:12:00,82.0,71.7,29.87,NNE,22,0.0,0.0,71,0.00,,---,0.41,VWS V13.01,2013-09-09 13:12:00,
2013-09-09 09:17:00,81.9,71.5,29.87,NNE,22,0.0,0.0,71,0.00,,---,0.41,VWS V13.01,2013-09-09 13:17:00,
2013-09-09 09:22:00,81.9,71.5,29.88,NNE,22,0.0,0.0,71,0.00,,---,0.41,VWS V13.01,2013-09-09 13:22:00,
2013-09-09 09:27:00,81.9,71.5,29.88,NNE,22,0.0,0.0,71,0.00,,---,0.41,VWS V13.01,2013-09-09 13:27:00,
2013-09-09 09:32:00,81.9,71.5,29.88,NE,45,0.0,0.0,71,0.00,,---,0.41,VWS V13.01,2013-09-09 13:32:00,
2013-09-09 09:37:00,81.9,71.5,29.88,ENE,68,0.0,0.0,71,0.00,,---,0.41,VWS V13.01,2013-09-09 13:37:00,
2013-09-09 09:42:00,81.9,71.5,29.88,NE,45,0.0,0.0,71,0.00,,---,0.41,VWS V13.01,2013-09-09 13:42:00,
2013-09-09 09:47:00,82.4,72.1,29.89,ESE,112,0.0,0.0,71,0.00,,---,0.41,VWS V13.01,2013-09-09 13:47:00,
2013-09-09 09:52:00,83.3,72.9,29.88,NE,45,0.0,0.0,71,0.00,,---,0.41,VWS V13.01,2013-09-09 13:52:00,
2013-09-09 09:57:00,83.7,72.4,29.88,East,90,0.0,0.0,69,0.00,,---,0.41,VWS V13.01,2013-09-09 13:57:00,
2013-09-09 10:02:00,84.6,73.3,29.88,SE,135,0.0,0.0,69,0.00,,---,0.41,VWS V13.01,2013-09-09 14:02:00,
2013-09-09 10:07:00,84.9,71.4,29.89,East,90,0.0,0.0,64,0.00,,---,0.41,VWS V13.01,2013-09-09 14:07:00,
2013-09-09 10:12:00,85.8,71.3,29.89,ENE,68,0.0,0.0,62,0.00,,---,0.41,VWS V13.01,2013-09-09 14:12:00,
2013-09-09 10:17:00,86.2,71.2,29.89,East,90,0.0,0.0,61,0.00,,---,0.41,VWS V13.01,2013-09-09 14:17:00,
2013-09-09 10:22:00,86.2,71.2,29.89,ENE,68,0.0,0.0,61,0.00,,---,0.41,VWS V13.01,2013-09-09 14:22:00,
2013-09-09 10:27:00,86.2,70.7,29.89,East,90,0.0,0.0,60,0.00,,---,0.41,VWS V13.01,2013-09-09 14:27:00,
2013-09-09 10:32:00,86.2,70.7,29.89,NE,45,0.0,0.0,60,0.00,,---,0.41,VWS V13.01,2013-09-09 14:32:00,
2013-09-09 10:37:00,86.2,70.7,29.89,ENE,68,0.0,0.0,60,0.00,,---,0.41,VWS V13.01,2013-09-09 14:37:00,
2013-09-09 10:42:00,86.2,70.2,29.90,NE,45,0.0,0.0,59,0.00,,---,0.41,VWS V13.01,2013-09-09 14:42:00,
2013-09-09 10:47:00,86.0,70.5,29.90,NNE,22,0.0,0.0,60,0.00,,---,0.41,VWS V13.01,2013-09-09 14:47:00,
2013-09-09 10:52:00,86.2,71.2,29.90,NNE,22,0.0,0.0,61,0.00,,---,0.41,VWS V13.01,2013-09-09 14:52:00,
2013-09-09 10:57:00,86.7,71.7,29.90,ESE,112,0.0,0.0,61,0.00,,---,0.41,VWS V13.01,2013-09-09 14:57:00,
2013-09-09 11:02:00,86.7,70.2,29.90,NE,45,0.0,0.0,58,0.00,,---,0.41,VWS V13.01,2013-09-09 15:02:00,
2013-09-09 11:07:00,86.5,70.0,29.90,East,90,0.0,0.0,58,0.00,,---,0.41,VWS V13.01,2013-09-09 15:07:00,
2013-09-09 11:12:00,86.4,69.8,29.90,ENE,68,0.0,0.0,58,0.00,,---,0.41,VWS V13.01,2013-09-09 15:12:00,
2013-09-09 11:17:00,86.4,70.3,29.90,NE,45,0.0,0.0,59,0.00,,---,0.41,VWS V13.01,2013-09-09 15:17:00,
2013-09-09 11:22:00,87.3,70.7,29.90,ESE,112,0.0,0.0,58,0.00,,---,0.41,VWS V13.01,2013-09-09 15:22:00,
2013-09-09 11:27:00,88.0,70.8,29.90,ENE,68,0.0,0.0,57,0.00,,---,0.41,VWS V13.01,2013-09-09 15:27:00,
2013-09-09 11:32:00,88.7,69.4,29.90,ENE,68,0.0,0.0,53,0.00,,---,0.41,VWS V13.01,2013-09-09 15:32:00,
2013-09-09 11:37:00,89.2,69.3,29.90,SSE,158,0.0,0.0,52,0.00,,---,0.41,VWS V13.01,2013-09-09 15:37:00,
2013-09-09 11:42:00,90.0,70.0,29.89,ENE,68,0.0,0.0,52,0.00,,---,0.41,VWS V13.01,2013-09-09 15:42:00,
2013-09-09 11:47:00,90.3,69.2,29.89,East,90,0.0,0.0,50,0.00,,---,0.41,VWS V13.01,2013-09-09 15:47:00,
2013-09-09 11:52:00,90.0,68.2,29.90,ENE,68,0.0,8.3,49,0.00,,---,0.41,VWS V13.01,2013-09-09 15:52:00,
2013-09-09 11:57:00,89.4,67.8,29.89,ENE,68,0.0,8.3,49,0.00,,---,0.41,VWS V13.01,2013-09-09 15:57:00,
2013-09-09 12:02:00,89.4,68.3,29.89,East,90,2.7,2.7,50,0.00,,---,0.41,VWS V13.01,2013-09-09 16:02:00,
2013-09-09 12:07:00,89.2,67.6,29.89,East,90,0.0,10.7,49,0.00,,---,0.41,VWS V13.01,2013-09-09 16:07:00,
2013-09-09 12:12:00,89.4,68.3,29.89,East,90,2.5,10.7,50,0.00,,---,0.41,VWS V13.01,2013-09-09 16:12:00,
2013-09-09 12:17:00,88.7,67.7,29.89,East,90,0.0,10.7,50,0.00,,---,0.41,VWS V13.01,2013-09-09 16:17:00,
2013-09-09 12:22:00,89.1,69.2,29.89,East,90,3.1,10.7,52,0.00,,---,0.41,VWS V13.01,2013-09-09 16:22:00,
2013-09-09 12:27:00,89.2,68.8,29.89,East,90,1.1,10.7,51,0.00,,---,0.41,VWS V13.01,2013-09-09 16:27:00,
2013-09-09 12:32:00,89.2,67.0,29.89,NE,45,8.7,10.7,48,0.00,,---,0.41,VWS V13.01,2013-09-09 16:32:00,
2013-09-09 12:37:00,89.4,67.2,29.89,SSE,158,5.4,10.7,48,0.00,,---,0.41,VWS V13.01,2013-09-09 16:37:00,
2013-09-09 12:42:00,90.0,68.8,29.89,SSE,158,1.8,10.7,50,0.00,,---,0.41,VWS V13.01,2013-09-09 16:42:00,
2013-09-09 12:47:00,90.5,69.3,29.88,East,90,0.0,10.7,50,0.00,,---,0.41,VWS V13.01,2013-09-09 16:47:00,
2013-09-09 12:52:00,90.9,68.5,29.88,ESE,112,0.0,10.7,48,0.00,,---,0.41,VWS V13.01,2013-09-09 16:52:00,
2013-09-09 12:57:00,90.5,66.9,29.89,ENE,68,1.8,10.7,46,0.00,,---,0.41,VWS V13.01,2013-09-09 16:57:00,
2013-09-09 13:02:00,90.3,68.0,29.88,ENE,68,3.8,5.4,48,0.00,,---,0.41,VWS V13.01,2013-09-09 17:02:00,
2013-09-09 13:07:00,90.5,68.2,29.88,SSE,158,2.9,9.4,48,0.00,,---,0.41,VWS V13.01,2013-09-09 17:07:00,
2013-09-09 13:12:00,90.5,68.2,29.88,East,90,11.4,11.4,48,0.00,,---,0.41,VWS V13.01,2013-09-09 17:12:00,
2013-09-09 13:17:00,89.8,66.9,29.88,SSE,158,2.9,11.4,47,0.00,,---,0.41,VWS V13.01,2013-09-09 17:17:00,
2013-09-09 13:22:00,89.1,66.8,29.88,ESE,112,0.0,11.4,48,0.00,,---,0.41,VWS V13.01,2013-09-09 17:22:00,
2013-09-09 13:27:00,88.7,67.1,29.88,East,90,5.8,11.4,49,0.00,,---,0.41,VWS V13.01,2013-09-09 17:27:00,
2013-09-09 13:32:00,88.7,67.7,29.88,SE,135,4.3,11.4,50,0.00,,---,0.41,VWS V13.01,2013-09-09 17:32:00,
2013-09-09 13:37:00,89.1,68.0,29.88,ESE,112,2.0,11.4,50,0.00,,---,0.41,VWS V13.01,2013-09-09 17:37:00,
2013-09-09 13:42:00,89.4,67.8,29.88,NE,45,5.6,11.4,49,0.00,,---,0.41,VWS V13.01,2013-09-09 17:42:00,
2013-09-09 13:47:00,89.4,67.2,29.88,SE,135,2.7,11.4,48,0.00,,---,0.41,VWS V13.01,2013-09-09 17:47:00,
2013-09-09 13:52:00,90.0,68.2,29.87,ESE,112,0.4,11.4,49,0.00,,---,0.41,VWS V13.01,2013-09-09 17:52:00,
2013-09-09 13:57:00,90.3,67.4,29.87,East,90,5.4,11.4,47,0.00,,---,0.41,VWS V13.01,2013-09-09 17:57:00,
2013-09-09 14:02:00,90.5,67.5,29.87,ENE,68,4.3,8.5,47,0.00,,---,0.41,VWS V13.01,2013-09-09 18:02:00,
2013-09-09 14:07:00,90.5,66.9,29.87,East,90,1.3,11.0,46,0.00,,---,0.41,VWS V13.01,2013-09-09 18:07:00,
2013-09-09 14:12:00,91.0,67.4,29.87,ESE,112,0.0,11.0,46,0.00,,---,0.41,VWS V13.01,2013-09-09 18:12:00,
2013-09-09 14:17:00,91.0,66.8,29.87,East,90,0.0,11.0,45,0.00,,---,0.41,VWS V13.01,2013-09-09 18:17:00,
2013-09-09 14:22:00,91.4,67.7,29.86,ESE,112,0.0,11.0,46,0.00,,---,0.41,VWS V13.01,2013-09-09 18:22:00,
2013-09-09 14:27:00,91.6,67.9,29.86,ENE,68,2.5,11.0,46,0.00,,---,0.41,VWS V13.01,2013-09-09 18:27:00,
2013-09-09 14:32:00,91.6,67.9,29.86,SE,135,1.8,11.0,46,0.00,,---,0.41,VWS V13.01,2013-09-09 18:32:00,
2013-09-09 14:37:00,91.6,67.9,29.86,SSE,158,4.9,11.0,46,0.00,,---,0.41,VWS V13.01,2013-09-09 18:37:00,
2013-09-09 14:42:00,91.2,67.6,29.86,SE,135,3.8,11.4,46,0.00,,---,0.41,VWS V13.01,2013-09-09 18:42:00,
2013-09-09 14:47:00,91.0,67.4,29.86,ENE,68,7.2,11.4,46,0.00,,---,0.41,VWS V13.01,2013-09-09 18:47:00,
2013-09-09 14:52:00,91.0,68.0,29.86,SE,135,2.9,11.4,47,0.00,,---,0.41,VWS V13.01,2013-09-09 18:52:00,
2013-09-09 14:57:00,91.6,69.1,29.86,SE,135,5.6,11.4,48,0.00,,---,0.41,VWS V13.01,2013-09-09 18:57:00,
2013-09-09 15:02:00,91.4,68.3,29.86,ENE,68,4.9,9.2,47,0.00,,---,0.00,VWS V13.01,2013-09-09 19:02:00,
2013-09-09 15:07:00,90.3,66.8,29.86,NE,45,2.5,11.2,46,0.00,,---,0.00,VWS V13.01,2013-09-09 19:07:00,
2013-09-09 15:12:00,89.8,67.5,29.86,ESE,112,0.0,11.2,48,0.00,,---,0.00,VWS V13.01,2013-09-09 19:12:00,
2013-09-09 15:17:00,90.0,68.2,29.85,NE,45,2.7,11.2,49,0.00,,---,0.00,VWS V13.01,2013-09-09 19:17:00,
2013-09-09 15:22:00,90.0,67.7,29.86,ENE,68,4.3,11.2,48,0.00,,---,0.00,VWS V13.01,2013-09-09 19:22:00,
2013-09-09 15:27:00,90.0,67.0,29.85,ESE,112,2.2,11.2,47,0.00,,---,0.00,VWS V13.01,2013-09-09 19:27:00,
2013-09-09 15:32:00,90.3,67.4,29.85,ENE,68,2.5,11.2,47,0.00,,---,0.00,VWS V13.01,2013-09-09 19:32:00,
2013-09-09 15:37:00,90.1,66.6,29.85,SE,135,3.1,11.2,46,0.00,,---,0.00,VWS V13.01,2013-09-09 19:37:00,
2013-09-09 15:42:00,90.3,67.4,29.85,ENE,68,0.7,11.2,47,0.00,,---,0.00,VWS V13.01,2013-09-09 19:42:00,
2013-09-09 15:47:00,90.5,66.9,29.85,ESE,112,0.0,11.4,46,0.00,,---,0.00,VWS V13.01,2013-09-09 19:47:00,
2013-09-09 15:52:00,90.5,66.9,29.85,NE,45,6.5,11.4,46,0.00,,---,0.00,VWS V13.01,2013-09-09 19:52:00,
2013-09-09 15:57:00,90.5,66.3,29.85,East,90,3.8,11.4,45,0.00,,---,0.00,VWS V13.01,2013-09-09 19:57:00,
2013-09-09 16:02:00,90.5,66.9,29.85,SE,135,1.3,9.6,46,0.00,,---,0.00,VWS V13.01,2013-09-09 20:02:00,
2013-09-09 16:07:00,90.5,67.5,29.84,East,90,4.0,9.6,47,0.00,,---,0.00,VWS V13.01,2013-09-09 20:07:00,
2013-09-09 16:12:00,89.4,66.6,29.84,East,90,2.0,9.6,47,0.00,,---,0.00,VWS V13.01,2013-09-09 20:12:00,
2013-09-09 16:17:00,89.2,66.4,29.84,SE,135,0.0,9.6,47,0.00,,---,0.00,VWS V13.01,2013-09-09 20:17:00,
2013-09-09 16:22:00,89.4,67.2,29.85,NE,45,1.6,9.6,48,0.00,,---,0.00,VWS V13.01,2013-09-09 20:22:00,
2013-09-09 16:27:00,89.4,67.2,29.85,ENE,68,2.9,9.6,48,0.00,,---,0.00,VWS V13.01,2013-09-09 20:27:00,
2013-09-09 16:32:00,88.9,65.4,29.84,ENE,68,6.3,9.6,46,0.00,,---,0.00,VWS V13.01,2013-09-09 20:32:00,
2013-09-09 16:37:00,88.3,66.2,29.85,ESE,112,0.0,9.6,48,0.00,,---,0.00,VWS V13.01,2013-09-09 20:37:00,
2013-09-09 16:42:00,88.2,66.6,29.85,ENE,68,3.4,9.6,49,0.00,,---,0.00,VWS V13.01,2013-09-09 20:42:00,
2013-09-09 16:47:00,88.2,66.0,29.84,NE,45,4.3,9.6,48,0.00,,---,0.00,VWS V13.01,2013-09-09 20:47:00,
2013-09-09 16:52:00,88.2,66.6,29.84,ENE,68,0.0,9.6,49,0.00,,---,0.00,VWS V13.01,2013-09-09 20:52:00,
2013-09-09 16:57:00,88.2,66.6,29.84,East,90,8.5,9.6,49,0.00,,---,0.00,VWS V13.01,2013-09-09 20:57:00,
2013-09-09 17:02:00,88.5,66.9,29.84,ENE,68,0.0,0.0,49,0.00,,---,0.00,VWS V13.01,2013-09-09 21:02:00,
2013-09-09 17:07:00,88.2,65.4,29.84,ENE,68,4.7,6.0,47,0.00,,---,0.00,VWS V13.01,2013-09-09 21:07:00,
2013-09-09 17:12:00,88.2,66.0,29.84,ESE,112,4.3,6.5,48,0.00,,---,0.00,VWS V13.01,2013-09-09 21:12:00,
2013-09-09 17:17:00,88.2,66.6,29.84,East,90,2.9,6.5,49,0.00,,---,0.00,VWS V13.01,2013-09-09 21:17:00,
2013-09-09 17:22:00,88.2,66.6,29.84,ENE,68,4.3,6.9,49,0.00,,---,0.00,VWS V13.01,2013-09-09 21:22:00,
2013-09-09 17:27:00,88.2,67.2,29.85,ENE,68,0.0,6.9,50,0.00,,---,0.00,VWS V13.01,2013-09-09 21:27:00,
2013-09-09 17:32:00,88.2,67.2,29.85,SSE,158,4.0,6.9,50,0.00,,---,0.00,VWS V13.01,2013-09-09 21:32:00,
2013-09-09 17:37:00,88.2,67.2,29.84,NE,45,1.1,6.9,50,0.00,,---,0.00,VWS V13.01,2013-09-09 21:37:00,
2013-09-09 17:42:00,88.0,67.0,29.85,East,90,2.5,6.9,50,0.00,,---,0.00,VWS V13.01,2013-09-09 21:42:00,
2013-09-09 17:47:00,88.0,67.0,29.85,SE,135,5.1,7.4,50,0.00,,---,0.00,VWS V13.01,2013-09-09 21:47:00,
2013-09-09 17:52:00,88.2,67.8,29.85,East,90,0.0,7.4,51,0.00,,---,0.00,VWS V13.01,2013-09-09 21:52:00,
2013-09-09 17:57:00,88.3,67.9,29.85,ENE,68,5.4,7.4,51,0.00,,---,0.00,VWS V13.01,2013-09-09 21:57:00,
2013-09-09 18:02:00,88.2,67.8,29.85,ENE,68,1.3,6.0,51,0.00,,---,0.00,VWS V13.01,2013-09-09 22:02:00,
2013-09-09 18:07:00,88.0,67.6,29.85,ESE,112,0.0,6.0,51,0.00,,---,0.00,VWS V13.01,2013-09-09 22:07:00,
2013-09-09 18:12:00,88.0,67.6,29.85,ESE,112,3.1,6.0,51,0.00,,---,0.00,VWS V13.01,2013-09-09 22:12:00,
2013-09-09 18:17:00,87.8,67.4,29.85,NE,45,0.9,7.6,51,0.00,,---,0.00,VWS V13.01,2013-09-09 22:17:00,
2013-09-09 18:22:00,87.4,67.1,29.85,ESE,112,2.7,7.6,51,0.00,,---,0.00,VWS V13.01,2013-09-09 22:22:00,
2013-09-09 18:27:00,87.1,66.8,29.85,East,90,0.0,7.6,51,0.00,,---,0.00,VWS V13.01,2013-09-09 22:27:00,
2013-09-09 18:32:00,86.7,66.4,29.85,East,90,0.0,7.6,51,0.00,,---,0.00,VWS V13.01,2013-09-09 22:32:00,
2013-09-09 18:37:00,86.4,66.1,29.85,ENE,68,0.0,7.6,51,0.00,,---,0.00,VWS V13.01,2013-09-09 22:37:00,
2013-09-09 18:42:00,86.4,66.7,29.86,ENE,68,2.0,7.6,52,0.00,,---,0.00,VWS V13.01,2013-09-09 22:42:00,
2013-09-09 18:47:00,86.2,66.5,29.85,ENE,68,0.0,7.6,52,0.00,,---,0.00,VWS V13.01,2013-09-09 22:47:00,
2013-09-09 18:52:00,86.2,66.5,29.86,East,90,2.9,7.6,52,0.00,,---,0.00,VWS V13.01,2013-09-09 22:52:00,
2013-09-09 18:57:00,86.2,67.6,29.86,NE,45,1.3,7.6,54,0.00,,---,0.00,VWS V13.01,2013-09-09 22:57:00,
2013-09-09 19:02:00,86.2,67.6,29.86,ESE,112,0.0,2.7,54,0.00,,---,0.00,VWS V13.01,2013-09-09 23:02:00,
2013-09-09 19:07:00,85.6,67.1,29.86,East,90,0.0,4.9,54,0.00,,---,0.00,VWS V13.01,2013-09-09 23:07:00,
2013-09-09 19:12:00,85.6,67.1,29.87,NE,45,1.8,4.9,54,0.00,,---,0.00,VWS V13.01,2013-09-09 23:12:00,
2013-09-09 19:17:00,85.5,66.9,29.87,NE,45,2.5,5.6,54,0.00,,---,0.00,VWS V13.01,2013-09-09 23:17:00,
2013-09-09 19:22:00,85.5,66.9,29.87,ENE,68,1.3,5.6,54,0.00,,---,0.00,VWS V13.01,2013-09-09 23:22:00,
2013-09-09 19:27:00,85.1,66.6,29.87,East,90,0.0,5.6,54,0.00,,---,0.00,VWS V13.01,2013-09-09 23:27:00,
2013-09-09 19:32:00,84.9,66.4,29.87,ESE,112,0.0,5.6,54,0.00,,---,0.00,VWS V13.01,2013-09-09 23:32:00,
2013-09-09 19:37:00,84.9,66.4,29.87,East,90,0.0,6.7,54,0.00,,---,0.00,VWS V13.01,2013-09-09 23:37:00,
2013-09-09 19:42:00,84.7,66.3,29.87,SE,135,0.0,6.7,54,0.00,,---,0.00,VWS V13.01,2013-09-09 23:42:00,
2013-09-09 19:47:00,84.7,66.3,29.87,East,90,0.0,6.7,54,0.00,,---,0.00,VWS V13.01,2013-09-09 23:47:00,
2013-09-09 19:52:00,84.6,66.1,29.86,ENE,68,1.3,6.7,54,0.00,,---,0.00,VWS V13.01,2013-09-09 23:52:00,
2013-09-09 19:57:00,84.4,65.9,29.87,East,90,0.0,6.7,54,0.00,,---,0.00,VWS V13.01,2013-09-09 23:57:00,
2013-09-09 20:02:00,84.4,65.9,29.87,ENE,68,1.1,1.1,54,0.00,,---,0.00,VWS V13.01,2013-09-10 00:02:00,
2013-09-09 20:07:00,84.2,65.8,29.87,East,90,0.0,1.1,54,0.00,,---,0.00,VWS V13.01,2013-09-10 00:07:00,
2013-09-09 20:12:00,84.0,65.6,29.88,East,90,0.0,2.2,54,0.00,,---,0.00,VWS V13.01,2013-09-10 00:12:00,
2013-09-09 20:17:00,84.0,65.6,29.88,ENE,68,0.0,2.2,54,0.00,,---,0.00,VWS V13.01,2013-09-10 00:17:00,
2013-09-09 20:22:00,83.8,65.4,29.88,ENE,68,0.0,2.2,54,0.00,,---,0.00,VWS V13.01,2013-09-10 00:22:00,
2013-09-09 20:27:00,83.8,68.0,29.88,ENE,68,0.0,2.7,59,0.00,,---,0.00,VWS V13.01,2013-09-10 00:27:00,
2013-09-09 20:32:00,83.8,68.0,29.88,ENE,68,0.0,2.9,59,0.00,,---,0.00,VWS V13.01,2013-09-10 00:32:00,
2013-09-09 20:37:00,83.8,68.0,29.88,NE,45,0.0,2.9,59,0.00,,---,0.00,VWS V13.01,2013-09-10 00:37:00,
2013-09-09 20:42:00,83.8,68.0,29.88,ENE,68,0.0,2.9,59,0.00,,---,0.00,VWS V13.01,2013-09-10 00:42:00,
2013-09-09 20:47:00,83.8,68.0,29.88,ENE,68,0.0,2.9,59,0.00,,---,0.00,VWS V13.01,2013-09-10 00:47:00,
2013-09-09 20:52:00,83.7,67.8,29.88,NE,45,0.0,2.9,59,0.00,,---,0.00,VWS V13.01,2013-09-10 00:52:00,
2013-09-09 20:57:00,83.8,68.0,29.88,ENE,68,0.0,2.9,59,0.00,,---,0.00,VWS V13.01,2013-09-10 00:57:00,
2013-09-09 21:02:00,83.7,67.8,29.88,ENE,68,0.0,0.0,59,0.00,,---,0.00,VWS V13.01,2013-09-10 01:02:00,
2013-09-09 21:07:00,83.7,67.8,29.89,ENE,68,0.0,0.0,59,0.00,,---,0.00,VWS V13.01,2013-09-10 01:07:00,
2013-09-09 21:12:00,83.5,67.7,29.89,East,90,0.0,0.0,59,0.00,,---,0.00,VWS V13.01,2013-09-10 01:12:00,
2013-09-09 21:17:00,83.5,67.7,29.88,ENE,68,0.0,0.0,59,0.00,,---,0.00,VWS V13.01,2013-09-10 01:17:00,
2013-09-09 21:22:00,83.7,67.8,29.89,ENE,68,0.0,0.0,59,0.00,,---,0.00,VWS V13.01,2013-09-10 01:22:00,
2013-09-09 21:27:00,83.3,68.5,29.89,East,90,0.0,0.0,61,0.00,,---,0.00,VWS V13.01,2013-09-10 01:27:00,
2013-09-09 21:32:00,83.3,68.5,29.89,NE,45,0.0,0.0,61,0.00,,---,0.00,VWS V13.01,2013-09-10 01:32:00,
2013-09-09 21:37:00,83.3,68.5,29.89,East,90,0.0,0.0,61,0.00,,---,0.00,VWS V13.01,2013-09-10 01:37:00,
2013-09-09 21:42:00,83.3,68.5,29.89,ENE,68,0.0,0.0,61,0.00,,---,0.00,VWS V13.01,2013-09-10 01:42:00,
2013-09-09 21:47:00,83.3,68.5,29.90,East,90,0.0,0.0,61,0.00,,---,0.00,VWS V13.01,2013-09-10 01:47:00,
2013-09-09 21:52:00,83.1,68.3,29.90,East,90,0.0,0.0,61,0.00,,---,0.00,VWS V13.01,2013-09-10 01:52:00,
2013-09-09 21:57:00,83.1,68.3,29.90,East,90,0.0,0.0,61,0.00,,---,0.00,VWS V13.01,2013-09-10 01:57:00,
2013-09-09 22:02:00,82.9,68.1,29.90,NE,45,0.0,0.0,61,0.00,,---,0.00,VWS V13.01,2013-09-10 02:02:00,
2013-09-09 22:07:00,82.9,69.5,29.90,NE,45,0.0,0.0,64,0.00,,---,0.00,VWS V13.01,2013-09-10 02:07:00,
2013-09-09 22:12:00,82.8,69.3,29.90,NE,45,0.0,0.0,64,0.00,,---,0.00,VWS V13.01,2013-09-10 02:12:00,
2013-09-09 22:17:00,82.9,69.5,29.90,NE,45,0.0,0.0,64,0.00,,---,0.00,VWS V13.01,2013-09-10 02:17:00,
2013-09-09 22:22:00,82.9,69.5,29.91,NE,45,0.0,0.0,64,0.00,,---,0.00,VWS V13.01,2013-09-10 02:22:00,
2013-09-09 22:27:00,82.8,69.3,29.91,NE,45,0.0,0.0,64,0.00,,---,0.00,VWS V13.01,2013-09-10 02:27:00,
2013-09-09 22:32:00,82.8,69.3,29.91,NE,45,0.0,0.0,64,0.00,,---,0.00,VWS V13.01,2013-09-10 02:32:00,
2013-09-09 22:37:00,82.8,69.3,29.91,NE,45,0.0,0.0,64,0.00,,---,0.00,VWS V13.01,2013-09-10 02:37:00,
2013-09-09 22:42:00,82.8,69.3,29.91,NE,45,0.0,0.0,64,0.00,,---,0.00,VWS V13.01,2013-09-10 02:42:00,
2013-09-09 22:47:00,82.6,69.2,29.91,NE,45,0.0,0.0,64,0.00,,---,0.00,VWS V13.01,2013-09-10 02:47:00,
2013-09-09 22:52:00,82.6,69.2,29.90,NE,45,0.0,0.0,64,0.00,,---,0.00,VWS V13.01,2013-09-10 02:52:00,
2013-09-09 22:57:00,82.2,68.8,29.90,NE,45,5.8,6.0,64,0.00,,---,0.00,VWS V13.01,2013-09-10 02:57:00,
2013-09-09 23:02:00,82.0,68.7,29.90,ENE,68,3.6,10.1,64,0.00,,---,0.00,VWS V13.01,2013-09-10 03:02:00,
2013-09-09 23:07:00,81.9,70.3,29.90,NNE,22,1.3,10.1,68,0.00,,---,0.00,VWS V13.01,2013-09-10 03:07:00,
2013-09-09 23:12:00,81.5,69.9,29.90,NE,45,2.9,10.1,68,0.00,,---,0.00,VWS V13.01,2013-09-10 03:12:00,
2013-09-09 23:17:00,81.3,70.6,29.91,ENE,68,0.4,10.1,70,0.00,,---,0.00,VWS V13.01,2013-09-10 03:17:00,
2013-09-09 23:22:00,81.0,70.3,29.90,East,90,2.2,10.1,70,0.00,,---,0.00,VWS V13.01,2013-09-10 03:22:00,
2013-09-09 23:27:00,80.8,70.1,29.90,NE,45,0.0,10.1,70,0.00,,---,0.00,VWS V13.01,2013-09-10 03:27:00,
2013-09-09 23:32:00,80.6,69.9,29.90,SSE,158,0.0,10.1,70,0.00,,---,0.00,VWS V13.01,2013-09-10 03:32:00,
2013-09-09 23:37:00,80.6,69.9,29.90,ENE,68,0.0,10.1,70,0.00,,---,0.00,VWS V13.01,2013-09-10 03:37:00,
2013-09-09 23:42:00,80.4,69.8,29.89,ENE,68,0.0,10.1,70,0.00,,---,0.00,VWS V13.01,2013-09-10 03:42:00,
2013-09-09 23:47:00,80.1,69.4,29.89,ENE,68,0.0,10.1,70,0.00,,---,0.00,VWS V13.01,2013-09-10 03:47:00,
2013-09-09 23:52:00,80.1,69.4,29.89,ENE,68,0.0,10.1,70,0.00,,---,0.00,VWS V13.01,2013-09-10 03:52:00,
2013-09-09 23:57:00,80.1,69.4,29.88,ENE,68,0.0,10.1,70,0.00,,---,0.00,VWS V13.01,2013-09-10 03:57:00,